Location: Caltech
(34.1382°N, 118.1253°W)
Time: 15:16:43
(UTC-07:00)

Cosmos 1626 - Visible Passes

Search period start: 27 March 2017 00:00
Search period end: 06 April 2017 00:00
Orbit: 497 x 501 km, 82.5° (Epoch: 26 March)

Date Brightness Start Highest point End Pass type
(mag) Time Alt. Az. Time Alt. Az. Time Alt. Az.
30 Mar 5.0 21:24:52 10° N 21:24:58 11° N 21:24:58 11° N visible
31 Mar 4.6 21:04:53 10° NNE 21:05:23 13° NNE 21:05:23 13° NNE visible
01 Apr 4.4 20:45:03 10° NNE 20:45:49 14° NE 20:45:49 14° NE visible
02 Apr 4.3 20:25:28 10° NE 20:26:18 13° NE 20:26:18 13° NE visible
02 Apr 5.1 21:59:57 10° NW 22:01:00 16° NW 22:01:00 16° NW visible
03 Apr 4.4 20:06:40 10° ENE 20:06:50 10° ENE 20:06:50 10° ENE visible
03 Apr 4.2 21:39:27 10° NNW 21:41:33 26° NW 21:41:33 26° NW visible
04 Apr 3.0 21:19:04 10° NNW 21:22:08 48° WNW 21:22:08 48° WNW visible
05 Apr 2.0 20:58:47 10° N 21:02:33 84° W 21:02:47 76° SSW visible
